Regional Weather Roundup
Issued by NWS

Home | Current Version | Previous Version | Graphics & Text | Print | Product List | Glossary On
Versions: 1 2 3 4 5 6 7 8 9 10 11 12 13 14 15 16 17 18 19 20 21 22 23 24 25 26 27 28 29 30 31 32 33 34 35 36 37 38 39 40 41 42 43 44 45 46 47 48 49 50
000
ASUS43 KOAX 191510
RWRNE

WEATHER ROUNDUP FOR NEBRASKA
NATIONAL WEATHER SERVICE OMAHA NE
1000 AM CDT SUN APR 19 2015

NOTES: SATELLITE DATA IS BEING USED TO AUGMENT CLOUD COVER ABOVE
       12000 FEET.
       "FAIR" INDICATES FEW OR NO CLOUDS BELOW 12,000 FEET WITH NO
       SIGNIFICANT WEATHER AND/OR OBSTRUCTIONS TO VISIBILITY.

  * THESE STATIONS DO NOT REPORT WEATHER SUCH AS RAIN...SNOW OR FOG.

NEZ001>004-019>022-054>056-191600-
NEBRASKA PANHANDLE

CITY           SKY/WX    TMP DP  RH WIND       PRES   REMARKS
SCOTTSBLUFF    MOSUNNY   44 N/A N/A NW22G31   30.12S
ALLIANCE       MOSUNNY   43  29  57 NW20G28   30.07S
CHADRON        SUNNY     44  30  57 NW17      30.11S
KIMBALL        MOSUNNY   39  28  63 NW24G30   30.09S WCI  29
SIDNEY         SUNNY     42  30  62 N23G33    30.08S
$$

NEZ057>060-069>072-079>082-191600-
SOUTHWEST NEBRASKA

CITY           SKY/WX    TMP DP  RH WIND       PRES   REMARKS
NORTH PLATTE   PTSUNNY   49  35  58 N28G40    29.96S
IMPERIAL       PTSUNNY   47  35  63 N28G39    30.02R
LEXINGTON      CLOUDY    46  40  77 N22G31    29.92R
MCCOOK         CLOUDY    47  41  80 N15       29.97R
OGALLALA       MOSUNNY   47  32  55 N26G33    30.04R
$$

NEZ005>010-023>029-035>040-094-191600-
NORTH CENTRAL NEBRASKA

CITY           SKY/WX    TMP DP  RH WIND       PRES   REMARKS
VALENTINE      SUNNY     47  31  53 NW23G35   29.98F
AINSWORTH      PTSUNNY   44  34  66 NW24G32   29.95F
BROKEN BOW     CLOUDY    46  38  73 N31G41    29.90R
O`NEILL        CLOUDY    48  37  64 NW30G36   29.88S
ORD            CLOUDY    47  36  65 N26G39    29.87R
THEDFORD       MOSUNNY   47  32  57 N26G39    29.97S
$$

NEZ041-046>049-061>064-073>077-083>087-191600-
SOUTH CENTRAL NEBRASKA

CITY           SKY/WX    TMP DP  RH WIND       PRES   REMARKS
GRAND ISLAND   LGT RAIN  48  44  86 N18G24    29.86R
AURORA         DRIZZLE   49  49  98 N14       29.83S
HASTINGS       LGT RAIN  49  47  93 N14       29.84S
HEBRON         CLOUDY    52  48  84 N14G22    29.79S
HOLDREGE       LGT RAIN  45  40  85 N32       29.90R
KEARNEY *      CLOUDY    45  37  76 N44G54    29.88R
YORK           LGT RAIN  50  48  93 N14G22    29.81F
$$

NEZ011>018-030>034-042>045-191600-
NORTHEAST NEBRASKA

CITY           SKY/WX    TMP DP  RH WIND       PRES   REMARKS
ALBION         LGT RAIN  47  38  71 N23G37    29.82S
BLAIR          HVY RAIN  51  49  95 NW17      29.73F
COLUMBUS *     CLOUDY    50  41  71 N20G25    29.81S
FREMONT        LGT RAIN  52  50  94 NW15G23   29.77S
TEKAMAH        HVY RAIN  53  50  89 NW18      29.74R FOG
WAYNE          CLOUDY    51  47  85 N20G28    29.78R
$$

NEZ050>053-065>068-078-088>093-191600-
SOUTHEAST NEBRASKA

CITY           SKY/WX    TMP DP  RH WIND       PRES   REMARKS
LINCOLN        LGT RAIN  53  50  89 NW17      29.77F FOG
OMAHA EPPLEY   LGT RAIN  54  52  93 NW15      29.73S FOG
BEATRICE       CLOUDY    54  51  89 N22       29.75S
FALLS CITY     CLOUDY    57  54  89 NW10      29.70F
NEBRASKA CITY  DRIZZLE   54  54 100 NW14      29.71F
PLATTSMOUTH    LGT RAIN  54  52  95 NW20      29.71F
$$

NEZ044-045-051>053-067-191600-
OMAHA AREA

CITY           SKY/WX    TMP DP  RH WIND       PRES   REMARKS
OMAHA EPPLEY   LGT RAIN  54  52  93 NW15      29.73S FOG
BLAIR          HVY RAIN  51  49  95 NW17      29.73F
FREMONT        LGT RAIN  52  50  94 NW15G23   29.77S
MILLARD        RAIN      53  52  95 NW14G20   29.74S
OFFUTT AFB     HVY RAIN  54  54 100 NW17      29.71F FOG
PLATTSMOUTH    LGT RAIN  54  52  95 NW20      29.71F
WAHOO          LGT RAIN  51  49  90 NW20G28   29.77R
$$


USA.gov is the U.S. government's official web portal to all federal, state and local government web resources and services.